| time (UTC) | temp F | wind direction | speed MPH | gust MPH | rain 1hr in | rain 24hr in | rain mn in | humidity % | barometer mb |
| 20260902220558 | 91 | 211 | 3.0 | 2.0 | 0.00 | 0.00 | 0.00 | 54 | 1016.0 |
| 20260902220052 | 91 | 283 | 2.0 | 2.0 | 0.00 | 0.00 | 0.00 | 53 | 1015.9 |
| 20260902215549 | 92 | 334 | 2.0 | 2.0 | 0.00 | 0.00 | 0.00 | 52 | 1016.3 |
| 20260902215043 | 93 | 12 | 3.0 | 3.0 | 0.00 | 0.00 | 0.00 | 50 | 1016.2 |
| 20260902214538 | 94 | 315 | 2.0 | 2.0 | 0.00 | 0.00 | 0.00 | 50 | 1016.0 |
| 20260902214037 | 93 | 149 | 1.0 | 1.0 | 0.00 | 0.00 | 0.00 | 52 | 1016.1 |
| 20260902213533 | 91 | 161 | 1.0 | 1.0 | 0.00 | 0.00 | 0.00 | 55 | 1016.0 |
| 20260902213032 | 91 | 126 | 2.0 | 2.0 | 0.00 | 0.00 | 0.00 | 54 | 1016.3 |
| 20260902212528 | 92 | 170 | 2.0 | 2.0 | 0.00 | 0.00 | 0.00 | 54 | 1016.2 |
| 20260902212024 | 92 | 351 | 3.0 | 3.0 | 0.00 | 0.00 | 0.00 | 52 | 1016.3 |
| 20260902211520 | 92 | 173 | 1.0 | 1.0 | 0.00 | 0.00 | 0.00 | 51 | 1016.2 |
| 20260902211014 | 94 | 47 | 4.0 | 7.0 | 0.00 | 0.00 | 0.00 | 50 | 1016.2 |
| 20260902210509 | 94 | 236 | 4.0 | 5.0 | 0.00 | 0.00 | 0.00 | 51 | 1016.3 |
| 20260902210008 | 94 | 305 | 3.0 | 3.0 | 0.00 | 0.00 | 0.00 | 51 | 1016.6 |
| 20260902205502 | 93 | 199 | 1.0 | 1.0 | 0.00 | 0.00 | 0.00 | 50 | 1016.3 |
| 20260902204958 | 93 | 165 | 1.0 | 1.0 | 0.00 | 0.00 | 0.00 | 51 | 1016.6 |
| 20260902204457 | 93 | 83 | 2.0 | 2.0 | 0.00 | 0.00 | 0.00 | 49 | 1016.8 |
| 20260902203952 | 94 | 250 | 3.0 | 5.0 | 0.00 | 0.00 | 0.00 | 49 | 1016.8 |
| 20260902203448 | 94 | 51 | 1.0 | 1.0 | 0.00 | 0.00 | 0.00 | 50 | 1016.7 |
| 20260902202946 | 93 | 296 | 1.0 | 2.0 | 0.00 | 0.00 | 0.00 | 52 | 1016.8 |
| 20260902202443 | 91 | 149 | 2.0 | 2.0 | 0.00 | 0.00 | 0.00 | 56 | 1016.9 |
| 20260902201939 | 91 | 312 | 2.0 | 2.0 | 0.00 | 0.00 | 0.00 | 57 | 1016.9 |
| 20260902201434 | 91 | 332 | 2.0 | 2.0 | 0.00 | 0.00 | 0.00 | 56 | 1017.0 |
| 20260902200934 | 91 | 295 | 1.0 | 1.0 | 0.00 | 0.00 | 0.00 | 55 | 1017.1 |
| 20260902200430 | 92 | 332 | 4.0 | 6.0 | 0.00 | 0.00 | 0.00 | 54 | 1017.1 |
| 20260902195925 | 93 | 34 | 2.0 | 3.0 | 0.00 | 0.00 | 0.00 | 51 | 1017.1 |
| 20260902195420 | 93 | 338 | 2.0 | 2.0 | 0.00 | 0.00 | 0.00 | 53 | 1017.2 |
| 20260902194915 | 94 | 64 | 1.0 | 1.0 | 0.00 | 0.00 | 0.00 | 49 | 1017.1 |
| 20260902194414 | 95 | 327 | 4.0 | 5.0 | 0.00 | 0.00 | 0.00 | 49 | 1017.3 |
| 20260902193909 | 95 | 291 | 4.0 | 5.0 | 0.00 | 0.00 | 0.00 | 51 | 1017.4 |
| 20260902193405 | 94 | 228 | 3.0 | 3.0 | 0.00 | 0.00 | 0.00 | 50 | 1017.2 |
| 20260902192903 | 93 | 274 | 1.0 | 2.0 | 0.00 | 0.00 | 0.00 | 52 | 1017.5 |
| 20260902192402 | 92 | 339 | 1.0 | 2.0 | 0.00 | 0.00 | 0.00 | 53 | 1017.4 |
| 20260902191856 | 94 | 339 | 4.0 | 8.0 | 0.00 | 0.00 | 0.00 | 52 | 1017.6 |
| 20260902191352 | 94 | 321 | 5.0 | 7.0 | 0.00 | 0.00 | 0.00 | 52 | 1017.4 |
| 20260902190842 | 94 | 302 | 3.0 | 5.0 | 0.00 | 0.00 | 0.00 | 52 | 1017.4 |
| 20260902190341 | 94 | 42 | 3.0 | 3.0 | 0.00 | 0.00 | 0.00 | 50 | 1017.6 |
| 20260902185838 | 95 | 293 | 2.0 | 2.0 | 0.00 | 0.00 | 0.00 | 50 | 1017.6 |
| 20260902185332 | 95 | 329 | 3.0 | 3.0 | 0.00 | 0.00 | 0.00 | 50 | 1017.7 |
| 20260902184828 | 93 | 115 | 2.0 | 2.0 | 0.00 | 0.00 | 0.00 | 52 | 1017.6 |
| 20260902184324 | 94 | 358 | 7.0 | 8.0 | 0.00 | 0.00 | 0.00 | 52 | 1017.7 |
| 20260902183819 | 95 | 64 | 3.0 | 3.0 | 0.00 | 0.00 | 0.00 | 53 | 1017.8 |
| 20260902183315 | 94 | 140 | 2.0 | 1.0 | 0.00 | 0.00 | 0.00 | 53 | 1017.9 |
| 20260902182811 | 94 | 263 | 3.0 | 5.0 | 0.00 | 0.00 | 0.00 | 52 | 1018.0 |
| 20260902182307 | 93 | 15 | 1.0 | 1.0 | 0.00 | 0.00 | 0.00 | 55 | 1017.8 |
| 20260902181803 | 94 | 314 | 2.0 | 2.0 | 0.00 | 0.00 | 0.00 | 52 | 1018.1 |
| 20260902181258 | 94 | 85 | 1.0 | 1.0 | 0.00 | 0.00 | 0.00 | 52 | 1017.9 |
| 20260902180752 | 95 | 187 | 3.0 | 5.0 | 0.00 | 0.00 | 0.00 | 49 | 1018.4 |
| 20260902180248 | 94 | 28 | 1.0 | 1.0 | 0.00 | 0.00 | 0.00 | 49 | 1018.2 |
| 20260902175743 | 94 | 298 | 2.0 | 1.0 | 0.00 | 0.00 | 0.00 | 50 | 1018.3 |
| 20260902175239 | 94 | 313 | 3.0 | 3.0 | 0.00 | 0.00 | 0.00 | 50 | 1018.3 |
| 20260902174734 | 94 | 335 | 4.0 | 5.0 | 0.00 | 0.00 | 0.00 | 53 | 1018.3 |
| 20260902174230 | 94 | 115 | 1.0 | 2.0 | 0.00 | 0.00 | 0.00 | 49 | 1018.2 |
| 20260902173725 | 94 | 338 | 2.0 | 2.0 | 0.00 | 0.00 | 0.00 | 53 | 1018.5 |
| 20260902173220 | 94 | 160 | 3.0 | 3.0 | 0.00 | 0.00 | 0.00 | 52 | 1018.5 |
| 20260902172715 | 93 | 148 | 0.0 | 0.0 | 0.00 | 0.00 | 0.00 | 51 | 1018.7 |
| 20260902172214 | 93 | 336 | 1.0 | 1.0 | 0.00 | 0.00 | 0.00 | 52 | 1018.8 |
| 20260902171709 | 94 | 271 | 3.0 | 2.0 | 0.00 | 0.00 | 0.00 | 51 | 1018.8 |
| 20260902171205 | 93 | 173 | 1.0 | 1.0 | 0.00 | 0.00 | 0.00 | 50 | 1018.6 |
| 20260902170701 | 93 | 300 | 3.0 | 3.0 | 0.00 | 0.00 | 0.00 | 53 | 1018.8 |
| 20260902170156 | 93 | 293 | 2.0 | 2.0 | 0.00 | 0.00 | 0.00 | 52 | 1018.7 |
| 20260902165656 | 92 | 246 | 2.0 | 2.0 | 0.00 | 0.00 | 0.00 | 51 | 1018.8 |
| 20260902165150 | 92 | 98 | 1.0 | 2.0 | 0.00 | 0.00 | 0.00 | 53 | 1018.7 |
| 20260902164646 | 93 | 247 | 1.0 | 2.0 | 0.00 | 0.00 | 0.00 | 54 | 1018.6 |
| 20260902164145 | 93 | 251 | 2.0 | 2.0 | 0.00 | 0.00 | 0.00 | 53 | 1018.9 |
| 20260902163640 | 92 | 127 | 2.0 | 2.0 | 0.00 | 0.00 | 0.00 | 56 | 1018.7 |
| 20260902163140 | 91 | 7 | 1.0 | 1.0 | 0.00 | 0.00 | 0.00 | 58 | 1018.8 |
| 20260902162638 | 91 | 112 | 0.0 | 0.0 | 0.00 | 0.00 | 0.00 | 56 | 1018.9 |
| 20260902162133 | 91 | 246 | 2.0 | 1.0 | 0.00 | 0.00 | 0.00 | 57 | 1018.9 |
| 20260902161628 | 91 | 301 | 4.0 | 5.0 | 0.00 | 0.00 | 0.00 | 56 | 1019.0 |
| 20260902161124 | 91 | 65 | 0.0 | 0.0 | 0.00 | 0.00 | 0.00 | 61 | 1019.0 |
| 20260902160620 | 91 | 187 | 1.0 | 1.0 | 0.00 | 0.00 | 0.00 | 58 | 1019.2 |
| 20260902160115 | 91 | 107 | 1.0 | 1.0 | 0.00 | 0.00 | 0.00 | 58 | 1019.3 |
| 20260902155613 | 91 | 159 | 0.0 | 0.0 | 0.00 | 0.00 | 0.00 | 59 | 1019.2 |
| 20260902155112 | 91 | 178 | 0.0 | 0.0 | 0.00 | 0.00 | 0.00 | 58 | 1019.3 |
| 20260902154608 | 91 | 175 | 2.0 | 2.0 | 0.00 | 0.00 | 0.00 | 61 | 1019.3 |
| 20260902154103 | 90 | 109 | 1.0 | 1.0 | 0.00 | 0.00 | 0.00 | 60 | 1019.3 |
| 20260902153601 | 89 | 0 | 2.0 | 2.0 | 0.00 | 0.00 | 0.00 | 64 | 1019.2 |
| 20260902153057 | 87 | 354 | 2.0 | 2.0 | 0.00 | 0.00 | 0.00 | 63 | 1019.3 |
| 20260902152553 | 88 | 301 | 3.0 | 3.0 | 0.00 | 0.00 | 0.00 | 61 | 1019.6 |
| 20260902152048 | 88 | 333 | 2.0 | 2.0 | 0.00 | 0.00 | 0.00 | 61 | 1019.4 |
| 20260902151544 | 88 | 343 | 2.0 | 5.0 | 0.00 | 0.00 | 0.00 | 64 | 1019.4 |
| 20260902151043 | 88 | 329 | 4.0 | 5.0 | 0.00 | 0.00 | 0.00 | 63 | 1019.4 |
| 20260902150539 | 89 | 350 | 4.0 | 5.0 | 0.00 | 0.00 | 0.00 | 62 | 1019.3 |
| 20260902150034 | 89 | 171 | 2.0 | 2.0 | 0.00 | 0.00 | 0.00 | 61 | 1019.3 |
| 20260902145529 | 89 | 311 | 3.0 | 2.0 | 0.00 | 0.00 | 0.00 | 62 | 1019.6 |
| 20260902145028 | 89 | 349 | 2.0 | 2.0 | 0.00 | 0.00 | 0.00 | 63 | 1019.3 |
| 20260902144525 | 88 | 358 | 2.0 | 2.0 | 0.00 | 0.00 | 0.00 | 64 | 1019.2 |
| 20260902144020 | 88 | 95 | 0.0 | 0.0 | 0.00 | 0.00 | 0.00 | 65 | 1019.3 |
| 20260902143515 | 87 | 139 | 1.0 | 2.0 | 0.00 | 0.00 | 0.00 | 65 | 1018.9 |
| 20260902143010 | 87 | 196 | 1.0 | 1.0 | 0.00 | 0.00 | 0.00 | 67 | 1019.1 |
| 20260902142506 | 87 | 337 | 3.0 | 2.0 | 0.00 | 0.00 | 0.00 | 67 | 1019.3 |
| 20260902142001 | 87 | 29 | 3.0 | 3.0 | 0.00 | 0.00 | 0.00 | 66 | 1019.2 |
| 20260902141456 | 86 | 191 | 2.0 | 2.0 | 0.00 | 0.00 | 0.00 | 69 | 1018.8 |
| 20260902140955 | 86 | 192 | 1.0 | 1.0 | 0.00 | 0.00 | 0.00 | 71 | 1019.0 |
| 20260902140451 | 86 | 356 | 2.0 | 2.0 | 0.00 | 0.00 | 0.00 | 70 | 1019.0 |
| 20260902135950 | 85 | 232 | 2.0 | 2.0 | 0.00 | 0.00 | 0.00 | 70 | 1018.9 |
| 20260902135446 | 85 | 233 | 3.0 | 3.0 | 0.00 | 0.00 | 0.00 | 71 | 1018.7 |
| 20260902134945 | 85 | 192 | 0.0 | 1.0 | 0.00 | 0.00 | 0.00 | 72 | 1019.1 |
| 20260902134441 | 84 | 164 | 2.0 | 1.0 | 0.00 | 0.00 | 0.00 | 72 | 1018.8 |
| 20260902133936 | 84 | 107 | 1.0 | 2.0 | 0.00 | 0.00 | 0.00 | 72 | 1018.9 |
| 20260902133431 | 84 | 87 | 1.0 | 1.0 | 0.00 | 0.00 | 0.00 | 72 | 1019.0 |
| 20260902132926 | 83 | 92 | 0.0 | 0.0 | 0.00 | 0.00 | 0.00 | 74 | 1018.6 |
| 20260902132421 | 83 | 161 | 1.0 | 1.0 | 0.00 | 0.00 | 0.00 | 74 | 1018.8 |
| 20260902131916 | 84 | 43 | 1.0 | 1.0 | 0.00 | 0.00 | 0.00 | 74 | 1018.8 |
| 20260902131413 | 83 | 83 | 1.0 | 1.0 | 0.00 | 0.00 | 0.00 | 73 | 1018.9 |
| 20260902130912 | 82 | 54 | 3.0 | 3.0 | 0.00 | 0.00 | 0.00 | 75 | 1018.8 |
| 20260902130408 | 82 | 45 | 2.0 | 2.0 | 0.00 | 0.00 | 0.00 | 75 | 1019.1 |
| 20260902125903 | 82 | 12 | 2.0 | 2.0 | 0.00 | 0.00 | 0.00 | 77 | 1018.9 |
| 20260902125359 | 81 | 84 | 1.0 | 2.0 | 0.00 | 0.00 | 0.00 | 77 | 1018.8 |
| 20260902124855 | 81 | 31 | 1.0 | 1.0 | 0.00 | 0.00 | 0.00 | 78 | 1018.7 |
| 20260902124350 | 80 | 149 | 1.0 | 1.0 | 0.00 | 0.00 | 0.00 | 79 | 1018.7 |
| 20260902123845 | 80 | 1 | 3.0 | 2.0 | 0.00 | 0.00 | 0.00 | 79 | 1018.9 |
| 20260902123342 | 80 | 341 | 1.0 | 1.0 | 0.00 | 0.00 | 0.00 | 80 | 1019.1 |
| 20260902122840 | 80 | 226 | 3.0 | 3.0 | 0.00 | 0.00 | 0.00 | 80 | 1018.8 |
| 20260902122336 | 80 | 197 | 1.0 | 1.0 | 0.00 | 0.00 | 0.00 | 81 | 1018.7 |
| 20260902121836 | 79 | 140 | 1.0 | 1.0 | 0.00 | 0.00 | 0.00 | 82 | 1018.6 |
| 20260902121331 | 78 | 276 | 4.0 | 6.0 | 0.00 | 0.00 | 0.00 | 83 | 1018.7 |
| 20260902120826 | 78 | 43 | 2.0 | 2.0 | 0.00 | 0.00 | 0.00 | 84 | 1018.6 |
| 20260902120323 | 77 | 258 | 3.0 | 3.0 | 0.00 | 0.00 | 0.00 | 85 | 1018.7 |
| 20260902115817 | 77 | 2 | 2.0 | 2.0 | 0.00 | 0.00 | 0.00 | 87 | 1018.7 |
| 20260902115314 | 76 | 46 | 0.0 | 0.0 | 0.00 | 0.00 | 0.00 | 87 | 1018.7 |
| 20260902114810 | 76 | 10 | 2.0 | 2.0 | 0.00 | 0.00 | 0.00 | 88 | 1018.4 |
| 20260902114305 | 76 | 21 | 2.0 | 2.0 | 0.00 | 0.00 | 0.00 | 88 | 1018.7 |
| 20260902113800 | 76 | 165 | 0.0 | 0.0 | 0.00 | 0.00 | 0.00 | 88 | 1018.3 |
| 20260902113255 | 76 | 78 | 0.0 | 0.0 | 0.00 | 0.00 | 0.00 | 88 | 1018.3 |
| 20260902112754 | 76 | 318 | 0.0 | 0.0 | 0.00 | 0.00 | 0.00 | 88 | 1018.0 |
| 20260902112251 | 75 | 35 | 1.0 | 1.0 | 0.00 | 0.00 | 0.00 | 89 | 1018.1 |
| 20260902111746 | 75 | 70 | 0.0 | 0.0 | 0.00 | 0.00 | 0.00 | 89 | 1018.2 |
| 20260902111243 | 75 | 45 | 1.0 | 1.0 | 0.00 | 0.00 | 0.00 | 89 | 1018.2 |
| 20260902110738 | 75 | 10 | 1.0 | 1.0 | 0.00 | 0.00 | 0.00 | 89 | 1018.2 |
| 20260902110234 | 75 | 120 | 0.0 | 1.0 | 0.00 | 0.00 | 0.00 | 90 | 1018.1 |
| 20260902105733 | 75 | 73 | 0.0 | 0.0 | 0.00 | 0.00 | 0.00 | 91 | 1018.1 |
| 20260902105229 | 75 | 61 | 1.0 | 0.0 | 0.00 | 0.00 | 0.00 | 91 | 1018.1 |
| 20260902104724 | 75 | 86 | 0.0 | 0.0 | 0.00 | 0.00 | 0.00 | 92 | 1018.3 |
| 20260902104220 | 74 | 252 | 1.0 | 1.0 | 0.00 | 0.00 | 0.00 | 93 | 1018.2 |
| 20260902103719 | 74 | 112 | 0.0 | 0.0 | 0.00 | 0.00 | 0.00 | 93 | 1018.3 |
| 20260902103214 | 74 | 130 | 0.0 | 0.0 | 0.00 | 0.00 | 0.00 | 93 | 1018.2 |
| 20260902102710 | 74 | 89 | 0.0 | 0.0 | 0.00 | 0.00 | 0.00 | 91 | 1018.1 |
| 20260902102208 | 75 | 67 | 0.0 | 0.0 | 0.00 | 0.00 | 0.00 | 91 | 1018.0 |
| 20260902101708 | 75 | 72 | 1.0 | 1.0 | 0.00 | 0.00 | 0.00 | 91 | 1018.1 |
| 20260902101203 | 75 | 339 | 1.0 | 1.0 | 0.00 | 0.00 | 0.00 | 92 | 1018.0 |
| 20260902100702 | 75 | 85 | 1.0 | 0.0 | 0.00 | 0.00 | 0.00 | 92 | 1017.9 |
| 20260902100156 | 74 | 293 | 1.0 | 1.0 | 0.00 | 0.00 | 0.00 | 93 | 1018.0 |
| 20260902095656 | 74 | 178 | 1.0 | 2.0 | 0.00 | 0.00 | 0.00 | 94 | 1018.0 |
| 20260902095150 | 74 | 182 | 2.0 | 2.0 | 0.00 | 0.00 | 0.00 | 96 | 1017.9 |
| 20260902094645 | 73 | 125 | 0.0 | 1.0 | 0.00 | 0.00 | 0.00 | 96 | 1018.0 |
| 20260902094142 | 73 | 104 | 0.0 | 0.0 | 0.00 | 0.00 | 0.00 | 97 | 1018.1 |
| 20260902093641 | 73 | 133 | 1.0 | 0.0 | 0.00 | 0.00 | 0.00 | 97 | 1018.3 |
| 20260902093136 | 73 | 111 | 0.0 | 0.0 | 0.00 | 0.00 | 0.00 | 97 | 1018.0 |
| 20260902092631 | 72 | 192 | 2.0 | 2.0 | 0.00 | 0.00 | 0.00 | 97 | 1018.3 |
| 20260902092126 | 72 | 127 | 0.0 | 0.0 | 0.00 | 0.00 | 0.00 | 97 | 1018.3 |
| 20260902091620 | 72 | 257 | 1.0 | 1.0 | 0.00 | 0.00 | 0.00 | 97 | 1018.2 |
| 20260902091117 | 72 | 102 | 0.0 | 0.0 | 0.00 | 0.00 | 0.00 | 97 | 1018.1 |
| 20260902090613 | 72 | 102 | 0.0 | 0.0 | 0.00 | 0.00 | 0.00 | 97 | 1018.2 |
| 20260902090111 | 72 | 103 | 0.0 | 0.0 | 0.00 | 0.00 | 0.00 | 97 | 1018.4 |
| 20260902085606 | 72 | 102 | 0.0 | 0.0 | 0.00 | 0.00 | 0.00 | 97 | 1018.5 |
| 20260902085101 | 72 | 102 | 0.0 | 0.0 | 0.00 | 0.00 | 0.00 | 97 | 1018.4 |
| 20260902084557 | 72 | 102 | 0.0 | 0.0 | 0.00 | 0.00 | 0.00 | 97 | 1018.4 |
| 20260902084052 | 72 | 102 | 0.0 | 0.0 | 0.00 | 0.00 | 0.00 | 97 | 1018.3 |
| 20260902083547 | 72 | 102 | 0.0 | 0.0 | 0.00 | 0.00 | 0.00 | 97 | 1018.3 |
| 20260902083042 | 72 | 102 | 0.0 | 0.0 | 0.00 | 0.00 | 0.00 | 97 | 1018.4 |
| 20260902082538 | 72 | 102 | 0.0 | 0.0 | 0.00 | 0.00 | 0.00 | 97 | 1018.1 |
| 20260902082034 | 72 | 119 | 0.0 | 0.0 | 0.00 | 0.00 | 0.00 | 97 | 1018.3 |
| 20260902081531 | 72 | 140 | 0.0 | 0.0 | 0.00 | 0.00 | 0.00 | 97 | 1018.0 |
| 20260902081030 | 72 | 114 | 0.0 | 0.0 | 0.00 | 0.00 | 0.00 | 97 | 1018.0 |
| 20260902080526 | 71 | 152 | 1.0 | 1.0 | 0.00 | 0.00 | 0.00 | 97 | 1018.3 |
| 20260902080022 | 71 | 174 | 0.0 | 0.0 | 0.00 | 0.00 | 0.00 | 96 | 1018.3 |
| 20260902075521 | 71 | 174 | 0.0 | 0.0 | 0.00 | 0.00 | 0.00 | 96 | 1018.1 |
| 20260902075018 | 71 | 174 | 0.0 | 0.0 | 0.00 | 0.00 | 0.00 | 96 | 1018.0 |
| 20260902074513 | 71 | 174 | 0.0 | 0.0 | 0.00 | 0.00 | 0.00 | 96 | 1017.9 |
| 20260902074013 | 71 | 174 | 0.0 | 0.0 | 0.00 | 0.00 | 0.00 | 96 | 1018.1 |
| 20260902073503 | 71 | 174 | 0.0 | 0.0 | 0.00 | 0.00 | 0.00 | 96 | 1017.9 |
| 20260902073000 | 71 | 174 | 0.0 | 0.0 | 0.00 | 0.00 | 0.00 | 96 | 1018.2 |
| 20260902072455 | 71 | 174 | 0.0 | 0.0 | 0.00 | 0.00 | 0.00 | 96 | 1018.2 |
| 20260902071951 | 70 | 174 | 0.0 | 0.0 | 0.00 | 0.00 | 0.00 | 96 | 1018.2 |
| 20260902071450 | 70 | 174 | 0.0 | 0.0 | 0.00 | 0.00 | 0.00 | 95 | 1018.2 |
| 20260902070947 | 70 | 174 | 0.0 | 0.0 | 0.00 | 0.00 | 0.00 | 95 | 1018.1 |
| 20260902070442 | 71 | 174 | 0.0 | 0.0 | 0.00 | 0.00 | 0.00 | 95 | 1018.0 |
| 20260902065941 | 71 | 174 | 0.0 | 0.0 | 0.00 | 0.00 | 0.00 | 95 | 1018.0 |
| 20260902065437 | 71 | 174 | 0.0 | 0.0 | 0.00 | 0.00 | 0.00 | 95 | 1018.2 |
| 20260902064931 | 71 | 174 | 0.0 | 0.0 | 0.00 | 0.00 | 0.00 | 95 | 1018.2 |
| 20260902064427 | 71 | 174 | 0.0 | 0.0 | 0.00 | 0.00 | 0.00 | 95 | 1018.2 |
| 20260902063923 | 71 | 174 | 0.0 | 0.0 | 0.00 | 0.00 | 0.00 | 95 | 1018.1 |
| 20260902063422 | 71 | 174 | 0.0 | 0.0 | 0.00 | 0.00 | 0.00 | 95 | 1018.3 |
| 20260902062918 | 71 | 174 | 0.0 | 0.0 | 0.00 | 0.00 | 0.00 | 95 | 1018.3 |
| 20260902062416 | 71 | 175 | 0.0 | 0.0 | 0.00 | 0.00 | 0.00 | 95 | 1018.5 |
| 20260902061911 | 71 | 175 | 0.0 | 0.0 | 0.00 | 0.00 | 0.00 | 94 | 1018.4 |
| 20260902061406 | 71 | 175 | 0.0 | 0.0 | 0.00 | 0.00 | 0.00 | 94 | 1018.6 |
| 20260902060903 | 71 | 175 | 0.0 | 0.0 | 0.00 | 0.00 | 0.00 | 94 | 1018.6 |
| 20260902060358 | 71 | 175 | 1.0 | 1.0 | 0.00 | 0.00 | 0.00 | 94 | 1018.4 |
| 20260902055854 | 71 | 175 | 0.0 | 0.0 | 0.00 | 0.00 | 0.00 | 94 | 1018.3 |
| 20260902055350 | 71 | 173 | 1.0 | 0.0 | 0.00 | 0.00 | 0.00 | 94 | 1018.5 |
| 20260902054845 | 71 | 174 | 0.0 | 0.0 | 0.00 | 0.00 | 0.00 | 94 | 1018.6 |
| 20260902054341 | 72 | 160 | 0.0 | 0.0 | 0.00 | 0.00 | 0.00 | 93 | 1018.3 |
| 20260902053836 | 72 | 160 | 0.0 | 0.0 | 0.00 | 0.00 | 0.00 | 93 | 1018.3 |
| 20260902053331 | 72 | 160 | 0.0 | 0.0 | 0.00 | 0.00 | 0.00 | 93 | 1018.4 |
| 20260902052830 | 72 | 160 | 0.0 | 0.0 | 0.00 | 0.00 | 0.00 | 93 | 1018.3 |
| 20260902052326 | 72 | 160 | 0.0 | 0.0 | 0.00 | 0.00 | 0.00 | 93 | 1018.3 |
| 20260902051820 | 72 | 161 | 1.0 | 1.0 | 0.00 | 0.00 | 0.00 | 93 | 1018.4 |
| 20260902051314 | 72 | 157 | 0.0 | 0.0 | 0.00 | 0.00 | 0.00 | 92 | 1018.5 |
| 20260902050809 | 72 | 145 | 0.0 | 0.0 | 0.00 | 0.00 | 0.00 | 92 | 1018.5 |
| 20260902050308 | 72 | 145 | 0.0 | 0.0 | 0.00 | 0.00 | 0.00 | 92 | 1018.4 |
| 20260902045803 | 73 | 145 | 0.0 | 0.0 | 0.00 | 0.00 | 0.00 | 91 | 1018.1 |
| 20260902045259 | 73 | 145 | 0.0 | 0.0 | 0.00 | 0.00 | 0.00 | 91 | 1018.1 |
| 20260902044755 | 73 | 147 | 0.0 | 0.0 | 0.00 | 0.00 | 0.00 | 91 | 1018.4 |
| 20260902044250 | 73 | 140 | 0.0 | 0.0 | 0.00 | 0.00 | 0.00 | 90 | 1018.3 |
| 20260902043745 | 73 | 140 | 0.0 | 0.0 | 0.00 | 0.00 | 0.00 | 90 | 1018.2 |
| 20260902043241 | 73 | 140 | 0.0 | 0.0 | 0.00 | 0.00 | 0.00 | 89 | 1018.1 |
| 20260902042739 | 74 | 140 | 0.0 | 0.0 | 0.00 | 0.00 | 0.00 | 89 | 1017.9 |
| 20260902042234 | 74 | 139 | 0.0 | 0.0 | 0.00 | 0.00 | 0.00 | 88 | 1018.0 |
| 20260902041730 | 74 | 140 | 0.0 | 0.0 | 0.00 | 0.00 | 0.00 | 87 | 1018.0 |
| 20260902041224 | 75 | 133 | 0.0 | 0.0 | 0.00 | 0.00 | 0.00 | 86 | 1017.9 |
| 20260902040724 | 75 | 133 | 0.0 | 0.0 | 0.00 | 0.00 | 0.00 | 85 | 1018.0 |
| 20260902040219 | 76 | 133 | 0.0 | 0.0 | 0.00 | 0.00 | 0.00 | 84 | 1017.6 |
| 20260902035718 | 76 | 134 | 0.0 | 0.0 | 0.00 | 0.00 | 0.00 | 83 | 1017.9 |
| 20260902035214 | 77 | 151 | 1.0 | 1.0 | 0.00 | 0.00 | 0.00 | 81 | 1017.9 |
| 20260902034712 | 77 | 163 | 0.0 | 0.0 | 0.00 | 0.00 | 0.00 | 80 | 1018.1 |
| 20260902034212 | 78 | 22 | 1.0 | 1.0 | 0.00 | 0.00 | 0.00 | 79 | 1018.2 |
| 20260902033711 | 78 | 220 | 0.0 | 1.0 | 0.00 | 0.00 | 0.00 | 79 | 1018.2 |
| 20260902033206 | 78 | 254 | 0.0 | 1.0 | 0.00 | 0.00 | 0.00 | 79 | 1018.1 |
| 20260902032705 | 78 | 343 | 2.0 | 1.0 | 0.00 | 0.00 | 0.00 | 79 | 1018.1 |
| 20260902032200 | 78 | 328 | 1.0 | 1.0 | 0.00 | 0.00 | 0.00 | 79 | 1017.9 |
| 20260902031654 | 78 | 221 | 3.0 | 3.0 | 0.00 | 0.00 | 0.00 | 79 | 1018.0 |
| 20260902031150 | 78 | 333 | 1.0 | 1.0 | 0.00 | 0.00 | 0.00 | 82 | 1017.9 |
| 20260902030645 | 77 | 276 | 1.0 | 1.0 | 0.00 | 0.00 | 0.00 | 84 | 1018.0 |
| 20260902030145 | 76 | 55 | 0.0 | 0.0 | 0.00 | 0.00 | 0.00 | 88 | 1018.0 |
| 20260902025644 | 75 | 356 | 1.0 | 1.0 | 0.00 | 0.00 | 0.00 | 90 | 1017.7 |
| 20260902025140 | 74 | 282 | 1.0 | 1.0 | 0.00 | 0.00 | 0.00 | 94 | 1017.9 |
| 20260902024635 | 72 | 233 | 2.0 | 2.0 | 0.00 | 0.00 | 0.00 | 94 | 1018.1 |
| 20260902024130 | 72 | 131 | 0.0 | 0.0 | 0.00 | 0.00 | 0.00 | 93 | 1017.8 |
| 20260902023626 | 72 | 131 | 0.0 | 0.0 | 0.00 | 0.00 | 0.00 | 92 | 1017.8 |
| 20260902023120 | 72 | 131 | 0.0 | 0.0 | 0.00 | 0.00 | 0.00 | 92 | 1017.8 |
| 20260902022620 | 72 | 131 | 0.0 | 0.0 | 0.00 | 0.00 | 0.00 | 91 | 1017.6 |
| 20260902022116 | 72 | 131 | 0.0 | 0.0 | 0.00 | 0.00 | 0.00 | 91 | 1017.6 |
| 20260902021611 | 72 | 131 | 0.0 | 0.0 | 0.00 | 0.00 | 0.00 | 90 | 1017.8 |
| 20260902021106 | 73 | 131 | 0.0 | 0.0 | 0.00 | 0.00 | 0.00 | 90 | 1017.8 |
| 20260902020602 | 73 | 131 | 0.0 | 0.0 | 0.00 | 0.00 | 0.00 | 89 | 1017.6 |
| 20260902020057 | 73 | 131 | 1.0 | 1.0 | 0.00 | 0.00 | 0.00 | 89 | 1017.7 |
| 20260902015553 | 73 | 131 | 0.0 | 0.0 | 0.00 | 0.00 | 0.00 | 88 | 1017.7 |
| 20260902015049 | 73 | 131 | 0.0 | 0.0 | 0.00 | 0.00 | 0.00 | 88 | 1017.7 |
| 20260902014545 | 73 | 131 | 0.0 | 0.0 | 0.00 | 0.00 | 0.00 | 87 | 1017.7 |
| 20260902014039 | 74 | 131 | 0.0 | 0.0 | 0.00 | 0.00 | 0.00 | 87 | 1017.7 |
| 20260902013539 | 74 | 131 | 0.0 | 0.0 | 0.00 | 0.00 | 0.00 | 86 | 1017.7 |
| 20260902013035 | 74 | 130 | 0.0 | 0.0 | 0.00 | 0.00 | 0.00 | 86 | 1017.5 |
| 20260902012530 | 74 | 124 | 1.0 | 1.0 | 0.00 | 0.00 | 0.00 | 86 | 1017.7 |
| 20260902012025 | 74 | 88 | 0.0 | 0.0 | 0.00 | 0.00 | 0.00 | 86 | 1017.5 |
| 20260902011520 | 74 | 47 | 1.0 | 1.0 | 0.00 | 0.00 | 0.00 | 85 | 1017.3 |
| 20260902011015 | 75 | 118 | 0.0 | 0.0 | 0.00 | 0.00 | 0.00 | 84 | 1017.2 |
| 20260902010514 | 75 | 119 | 0.0 | 0.0 | 0.00 | 0.00 | 0.00 | 83 | 1017.4 |
| 20260902010010 | 75 | 102 | 0.0 | 0.0 | 0.00 | 0.00 | 0.00 | 83 | 1017.3 |
| 20260902005508 | 76 | 102 | 0.0 | 0.0 | 0.00 | 0.00 | 0.00 | 81 | 1017.3 |
| 20260902005005 | 76 | 102 | 0.0 | 0.0 | 0.00 | 0.00 | 0.00 | 80 | 1017.4 |
| 20260902004504 | 77 | 102 | 0.0 | 0.0 | 0.00 | 0.00 | 0.00 | 78 | 1017.2 |
| 20260902003959 | 78 | 102 | 0.0 | 0.0 | 0.00 | 0.00 | 0.00 | 76 | 1017.2 |
| 20260902003454 | 78 | 94 | 0.0 | 0.0 | 0.00 | 0.00 | 0.00 | 75 | 1017.1 |
| 20260902002949 | 79 | 63 | 0.0 | 0.0 | 0.00 | 0.00 | 0.00 | 73 | 1017.3 |
| 20260902002445 | 79 | 30 | 0.0 | 0.0 | 0.00 | 0.00 | 0.00 | 72 | 1017.1 |
| 20260902001944 | 80 | 62 | 0.0 | 0.0 | 0.00 | 0.00 | 0.00 | 71 | 1017.2 |
| 20260902001439 | 80 | 6 | 1.0 | 1.0 | 0.00 | 0.00 | 0.00 | 71 | 1017.0 |
| 20260902000934 | 81 | 208 | 1.0 | 2.0 | 0.00 | 0.00 | 0.00 | 70 | 1017.0 |
| 20260902000429 | 81 | 85 | 1.0 | 1.0 | 0.00 | 0.00 | 0.00 | 69 | 1016.8 |
| 20260901235924 | 82 | 321 | 1.0 | 1.0 | 0.00 | 0.00 | 0.00 | 69 | 1016.8 |
| 20260901235419 | 82 | 298 | 3.0 | 3.0 | 0.00 | 0.00 | 0.00 | 69 | 1017.0 |
| 20260901234914 | 82 | 203 | 2.0 | 2.0 | 0.00 | 0.00 | 0.00 | 68 | 1017.3 |
| 20260901234408 | 82 | 196 | 2.0 | 2.0 | 0.00 | 0.00 | 0.00 | 68 | 1017.5 |
| 20260901233903 | 82 | 40 | 1.0 | 1.0 | 0.00 | 0.00 | 0.00 | 67 | 1017.4 |
| 20260901233358 | 83 | 24 | 0.0 | 0.0 | 0.00 | 0.00 | 0.00 | 68 | 1017.3 |
| 20260901232855 | 83 | 240 | 2.0 | 3.0 | 0.00 | 0.00 | 0.00 | 68 | 1017.4 |
| 20260901232348 | 83 | 315 | 1.0 | 1.0 | 0.00 | 0.00 | 0.00 | 68 | 1017.6 |
| 20260901231845 | 83 | 332 | 7.0 | 9.0 | 0.00 | 0.00 | 0.00 | 67 | 1017.7 |
| 20260901231341 | 83 | 93 | 0.0 | 0.0 | 0.00 | 0.00 | 0.00 | 69 | 1017.6 |
| 20260901230837 | 84 | 82 | 1.0 | 1.0 | 0.00 | 0.00 | 0.00 | 69 | 1017.8 |
| 20260901230336 | 84 | 126 | 1.0 | 1.0 | 0.00 | 0.00 | 0.00 | 68 | 1017.9 |
| 20260901225832 | 84 | 165 | 1.0 | 1.0 | 0.00 | 0.00 | 0.00 | 67 | 1017.8 |
| 20260901225331 | 84 | 318 | 2.0 | 2.0 | 0.00 | 0.00 | 0.00 | 66 | 1017.9 |
| 20260901224826 | 84 | 284 | 0.0 | 1.0 | 0.00 | 0.00 | 0.00 | 66 | 1017.8 |
| 20260901224323 | 84 | 332 | 2.0 | 2.0 | 0.00 | 0.00 | 0.00 | 65 | 1017.9 |
| 20260901223819 | 84 | 338 | 3.0 | 6.0 | 0.00 | 0.00 | 0.00 | 64 | 1017.7 |
| 20260901223314 | 84 | 344 | 3.0 | 3.0 | 0.00 | 0.00 | 0.00 | 63 | 1018.1 |
| 20260901222810 | 85 | 323 | 9.0 | 13.0 | 0.00 | 0.00 | 0.00 | 62 | 1018.1 |
| 20260901222306 | 85 | 320 | 3.0 | 7.0 | 0.00 | 0.00 | 0.00 | 62 | 1018.1 |
| 20260901221802 | 86 | 331 | 1.0 | 1.0 | 0.00 | 0.00 | 0.00 | 63 | 1017.9 |
| 20260901221256 | 87 | 257 | 1.0 | 2.0 | 0.00 | 0.00 | 0.00 | 60 | 1018.1 |